CAPE
1063 960 911 1109 1020 907 0 50 135 338 394 415 483 552 468 116 222 598 1063 1643 2389 2715 3033 3258 3739 3758 3266 3148 2853 2458 2246 1960 1963 1717 1739 1335 1592 1565 1584 1574 1575 1564 1391 1342 1437 1663 840 602 1087
808 536 960 1240 1090 33 28 51 92 278 307 375 614 774 874 1046 1106 1017 1331 1867 2275 2661 2830 3124 3723 3726 3467 3258 2935 2472 2050 1907 2094 1859 1794 1555 1873 1727 1630 1639 1531 1638 1524 1519 1728 1385 973 669 1420
496 648 983 1683 1296 3 28 33 120 127 267 255 387 555 823 1062 995 1008 1083 1570 1937 2115 2557 2898 3565 3467 3177 3011 3132 2792 2358 2145 2331 2101 1854 1933 1748 1617 1736 1571 1657 1934 1552 1655 1374 841 920 990 1269
1038 1682 1270 1464 310 0 1 0 178 243 210 255 442 743 709 1036 1056 1140 1087 1275 1329 1782 2246 3273 3498 2971 2681 2658 2796 2632 2425 2526 2428 2278 2056 1944 1946 1696 1752 1836 1673 1628 1460 1645 1239 761 1004 1179 1049
8 548 546 1025 317 0 2 68 224 280 285 431 598 609 665 831 1098 966 905 734 995 1406 2127 2727 3412 3470 3326 3130 2865 2621 2626 2607 2323 2161 2055 1953 1860 1780 1787 1867 1825 1444 1608 1639 827 615 588 857 812
102 48 310 30 27 0 0 13 216 372 405 577 564 532 559 933 999 1085 862 620 956 1183 2022 2295 2855 3051 2688 2475 2474 2496 2452 2412 2273 2620 2246 2144 2029 1940 1773 1682 1685 1835 1535 1458 928 978 850 991 853
989 805 717 121 14 1 10 4 28 255 476 597 534 499 554 818 920 1016 746 940 1124 1487 1764 2118 2208 2154 2503 2493 2587 2535 2654 2666 2434 2039 1750 2008 1969 1704 1689 1717 1645 1806 1564 1532 1101 1470 1020 1414 1193
1434 966 195 13 6 4 48 110 34 118 425 646 463 420 539 558 759 972 963 941 1015 1340 1667 1892 2161 1983 1923 2089 2773 2689 2505 2458 2449 2182 1895 1828 1601 1712 1566 2073 2262 1618 1727 1655 1445 1159 1509 1318 1469
1175 626 365 305 77 52 90 104 48 52 271 366 468 417 438 555 611 940 1103 1022 1108 936 1428 1690 1798 1848 1869 1825 2039 2851 2384 2285 2175 2011 2102 2021 1463 1658 1416 1636 1700 1655 1720 1622 1220 1609 1296 1382 1340
433 263 264 176 124 95 96 64 43 57 199 401 512 430 463 492 715 1175 1444 1470 1446 1219 1033 1173 1435 1537 1593 1816 1876 2127 1760 1793 1748 1752 1639 1573 1354 1231 1285 1604 1620 1642 1556 1612 1361 1597 1689 1324 862
2 52 19 7 41 104 101 83 47 49 146 405 441 436 465 484 505 1103 1479 1685 1616 1236 1234 1205 1214 1177 1228 1366 1504 1721 1659 1658 1535 1453 1421 1356 1153 682 750 1027 1113 1212 1624 1239 1663 1736 1582 1384 810
0 0 0 0 0 42 98 66 55 52 51 346 447 428 523 465 455 571 1064 1393 1303 1385 1277 1323 1372 1337 1287 1483 1316 1397 1388 1329 1276 1210 1243 1306 992 251 429 644 807 962 1305 1222 1181 1125 1294 1201 1060
0 0 0 0 0 0 74 96 72 52 39 422 419 456 483 460 505 502 621 663 1418 1433 1267 1335 1318 1391 1391 1443 1588 1309 1127 1190 1110 1042 1012 1012 943 420 399 615 740 768 894 1094 929 1000 831 750 567
0 0 0 0 0 0 16 31 106 65 46 309 351 414 386 413 562 659 735 729 684 1247 1178 1330 1280 1248 1414 1410 1650 1446 1199 1219 1164 1102 903 688 404 412 364 474 546 656 671 725 745 664 631 536 391
0 0 0 0 0 0 0 0 0 63 68 208 249 274 341 382 581 774 838 834 748 647 1107 1204 1279 1236 1179 1312 1315 1298 1163 1159 1202 1208 906 436 594 417 276 139 345 376 627 605 434 498 524 462 511
0 0 0 0 0 0 0 0 0 114 118 157 255 241 379 429 591 803 864 841 770 698 994 1210 1182 1258 1322 1318 1246 1286 1012 920 1181 1077 845 461 257 120 89 67 155 327 423 508 671 626 624 390 309
0 0 0 0 0 0 0 0 32 149 127 158 177 236 358 485 616 700 877 825 773 733 1122 1252 1279 1296 1508 1501 1369 1059 776 808 694 699 788 881 766 623 624 295 32 246 367 305 475 447 399 257 319
0 0 0 0 0 0 0 2 15 58 137 190 181 200 243 336 520 582 714 816 742 895 1111 1194 1429 1281 1636 1845 1585 1181 405 495 241 103 239 695 923 895 680 599 257 11 208 341 438 453 553 232 238
0 0 0 0 0 0 0 0 6 23 54 146 185 177 252 323 337 437 513 720 709 1210 1261 1327 1556 1688 1818 2043 1861 1515 1045 653 307 228 518 745 872 802 877 709 132 5 144 255 453 526 525 530 213
0 0 0 0 0 0 0 0 0 10 19 17 35 143 250 315 398 398 560 904 882 1343 1344 1479 1667 1952 2058 2019 1945 1770 1304 898 431 122 449 960 1093 1013 717 256 69 1 72 237 391 508 294 229 256
0 0 0 0 0 0 0 0 0 0 0 0 0 19 178 344 434 466 609 1129 1119 1383 1322 1566 1897 2137 2268 2147 2149 2029 1749 1237 1005 760 911 1091 1174 874 492 225 179 27 39 212 240 196 0 37 158
0 0 0 0 0 0 0 0 0 0 0 0 0 19 154 294 410 579 595 1170 1418 1518 1508 1610 2210 2537 2336 2259 2224 2101 1870 1589 1074 556 848 1079 1127 961 591 193 67 37 34 213 158 74 3 31 37
0 0 0 0 0 0 0 0 0 0 0 0 0 0 301 321 448 664 675 932 1647 1737 1675 1901 2538 2856 2677 2417 2292 2074 2258 1596 652 484 855 846 838 688 614 210 71 104 104 195 86 21 0 0 1
0 0 0 0 0 0 0 0 0 0 0 0 30 420 508 494 577 694 759 1080 1942 2308 1989 2620 3005 2884 2653 2491 2508 2483 1146 1069 1379 1363 1185 1022 810 677 587 457 306 107 91 125 29 0 5 6 38
0 0 0 0 0 0 0 0 0 0 0 0 68 521 667 689 737 860 801 1396 2686 2677 2932 2990 2934 3036 3032 2847 2284 1815 1990 1959 1889 1529 1168 1006 892 679 675 608 405 311 290 262 130 86 60 204 254
2 1 0 0 0 0 0 0 0 0 0 0 24 513 923 984 929 922 1096 2013 2801 3154 2862 2774 3212 2753 2531 2272 1756 1504 1807 1213 1135 1509 1174 859 789 641 451 275 326 384 408 337 406 425 396 449 336
0 1 0 0 0 0 0 0 0 0 0 0 10 16 81 807 1046 1203 1596 2750 3260 3083 2944 3002 3049 2775 2171 1823 1327 1412 166 276 1525 1768 1489 977 763 687 367 241 183 162 94 218 361 283 330 354 215
5 0 14 0 0 0 0 0 0 51 0 70 69 471 1302 1627 1750 2672 3009 3119 2954 2955 3074 3015 2804 2382 2082 1838 1843 744 356 1098 1827 1754 1529 1137 818 523 313 278 111 51 192 244 153 156 141 187 257
2 0 13 0 0 0 0 0 1126 738 553 694 1169 2339 2059 2498 2851 2715 2699 2745 2846 3012 3144 2933 2629 2432 1832 1897 1816 1954 2014 1868 2034 1603 1433 1166 657 470 251 164 143 201 226 131 155 206 179 225 183
0 6 3 6 0 0 0 1 524 1100 1371 1439 2428 3199 3286 3313 3173 2753 2732 3006 3089 3064 2966 2874 2461 1880 1934 2044 1669 1940 2186 2130 1614 1536 1220 922 547 303 2 0 55 114 207 71 40 179 130 180 122
CIN
-101 -83 -105 -85 -77 -111 -0 -27 -44 -65 -69 -35 -36 -62 -76 -93 -79 -44 -86 -151 -80 -28 -1 -0 -0 -0 -0 -0 -0 -3 -2 -3 -2 -4 -0 -6 -0 -0 -0 -0 -0 -0 -0 -0 -0 -0 -0 -14 -0
-199 -158 -128 -68 -74 -27 -72 -61 -95 -89 -90 -80 -85 -58 -75 -66 -113 -86 -125 -85 -97 -54 -22 -0 -0 -0 -0 -0 -0 -0 -7 -6 -0 -0 -0 -0 -0 -0 -0 -0 -0 -0 -0 -0 -0 -0 -2 -14 -0
-201 -196 -143 -65 -91 -6 -82 -63 -96 -87 -90 -113 -105 -76 -78 -82 -83 -84 -119 -139 -102 -88 -38 -3 -0 -0 -0 -0 -0 -0 -0 -0 -0 -0 -0 -0 -0 -0 -0 -0 -0 -0 -0 -0 -0 -0 -7 -8 -0
-215 -100 -152 -88 -72 -0 -37 -0 -96 -81 -118 -113 -80 -100 -43 -74 -103 -41 -171 -157 -148 -103 -62 -1 -0 -0 -0 -0 -0 -0 -0 -0 -0 -0 -0 -0 -0 -0 -0 -0 -0 -0 -0 -0 -0 -2 -3 -7 -6
-246 -354 -219 -89 -35 -0 -46 -102 -144 -132 -161 -115 -103 -99 -57 -43 -34 -47 -30 -169 -200 -153 -74 -27 -0 -0 -0 -0 -0 -0 -0 -0 -0 -0 -0 -4 -3 -0 -0 -0 -0 -0 -0 -0 -0 -7 -16 -19 -18
-444 -471 -152 -10 -19 -9 -0 -85 -77 -111 -162 -149 -159 -146 -129 -64 -61 -48 -27 -26 -219 -215 -81 -37 -5 -1 -5 -2 -0 -0 -0 -0 -0 -0 -0 -0 -0 -0 -0 -1 -0 -0 -0 -0 -0 -0 -6 -10 -20
-88 -233 -130 -38 -16 -0 -61 -74 -69 -123 -170 -149 -169 -157 -149 -99 -59 -37 -56 -212 -224 -173 -118 -73 -50 -49 -9 -2 -0 -0 -0 -0 -0 -0 -1 -0 -0 -0 -2 -0 -0 -0 -0 -0 -0 -0 -4 -1 -9
-118 -61 -123 -4 -10 -18 -10 -16 -24 -65 -120 -166 -197 -160 -178 -173 -110 -153 -199 -232 -234 -167 -125 -89 -47 -59 -67 -32 -0 -0 -0 -0 -0 -0 -5 -1 -0 -0 -1 -0 -0 -0 -0 -0 -0 -0 -0 -10 -10
-71 -63 -82 -46 -24 -56 -19 -16 -14 -77 -130 -144 -171 -216 -215 -225 -186 -189 -169 -58 -33 -22 -136 -97 -72 -60 -60 -59 -33 -0 -0 -0 -0 -4 -0 -0 -0 -0 -1 -6 -2 -0 -0 -0 -0 -0 -0 -4 -22
-77 -66 -113 -139 -36 -39 -30 -22 -20 -42 -126 -222 -300 -278 -253 -252 -259 -216 -139 -94 -33 -32 -41 -143 -103 -99 -92 -67 -37 -6 -23 -38 -26 -13 -11 -6 -8 -10 -7 -7 -1 -0 -1 -0 -1 -0 -0 -8 -45
-9 -76 -71 -15 -18 -33 -39 -98 -25 -20 -131 -218 -347 -307 -235 -258 -278 -234 -192 -106 -63 -116 -155 -163 -148 -140 -122 -98 -92 -39 -38 -38 -50 -46 -30 -26 -37 -37 -33 -23 -13 -11 -1 -1 -1 -1 -0 -13 -47
-0 -0 -0 -0 -0 -28 -59 -70 -44 -24 -28 -230 -367 -300 -237 -265 -272 -299 -253 -169 -180 -145 -168 -174 -145 -129 -116 -71 -102 -89 -77 -66 -61 -64 -47 -35 -22 -44 -27 -36 -23 -23 -11 -4 -8 -9 -7 -12 -23
-0 -0 -0 -0 -0 -0 -155 -237 -88 -50 -37 -282 -358 -272 -252 -299 -295 -321 -245 -242 -173 -143 -173 -191 -150 -122 -115 -93 -53 -64 -85 -76 -61 -48 -56 -32 -48 -41 -16 -19 -26 -33 -25 -12 -20 -23 -21 -23 -38
-0 -0 -0 -0 -0 -0 -74 -53 -179 -93 -59 -274 -280 -290 -320 -305 -384 -286 -256 -211 -250 -198 -155 -187 -173 -159 -123 -87 -43 -40 -64 -63 -43 -37 -34 -24 -62 -71 -35 -16 -13 -44 -34 -37 -29 -35 -38 -37 -45
-0 -0 -0 -0 -0 -0 -0 -0 -0 -119 -63 -251 -235 -306 -328 -368 -407 -325 -277 -244 -186 -192 -196 -192 -165 -144 -121 -64 -102 -69 -85 -109 -20 -16 -22 -28 -45 -61 -71 -38 -19 -20 -31 -26 -31 -21 -23 -28 -20
-0 -0 -0 -0 -0 -0 -0 -0 -6 -205 -213 -248 -269 -351 -353 -361 -324 -327 -285 -282 -211 -184 -242 -154 -206 -177 -111 -97 -101 -61 -73 -87 -71 -31 -37 -38 -32 -23 -23 -57 -53 -13 -16 -21 -9 -11 -16 -19 -45
-0 -0 -0 -0 -0 -0 -0 -0 -16 -171 -188 -240 -250 -232 -320 -301 -276 -294 -294 -273 -191 -246 -257 -235 -192 -143 -100 -97 -84 -40 -82 -62 -41 -35 -81 -59 -31 -31 -22 -15 -24 -19 -22 -18 -24 -19 -26 -31 -31
-0 -0 -0 -0 -0 -0 -0 -9 -16 -36 -146 -184 -236 -172 -180 -260 -280 -249 -271 -259 -213 -331 -259 -240 -222 -194 -131 -100 -66 -61 -80 -94 -71 -125 -170 -105 -53 -26 -34 -12 -2 -30 -10 -24 -32 -32 -37 -56 -39
-0 -0 -0 -0 -0 -0 -0 -0 -32 -2 -153 -124 -186 -190 -173 -155 -156 -241 -285 -234 -234 -326 -262 -263 -224 -211 -146 -82 -67 -75 -86 -73 -124 -256 -171 -107 -57 -46 -20 -9 -26 -26 -10 -23 -30 -25 -20 -33 -43
-0 -0 -0 -0 -0 -0 -0 -0 -0 -18 -16 -45 -82 -186 -198 -165 -136 -105 -349 -355 -391 -336 -282 -276 -248 -219 -160 -113 -71 -37 -33 -66 -50 -273 -190 -114 -66 -30 -20 -55 -80 -8 -21 -8 -22 -17 -24 -23 -27
-0 -0 -0 -0 -0 -0 -0 -0 -0 -0 -0 -0 -0 -109 -179 -204 -173 -160 -332 -376 -399 -343 -309 -290 -270 -234 -182 -115 -56 -28 -12 -37 -44 -109 -73 -103 -53 -34 -34 -41 -40 -41 -11 -6 -22 -33 -0 -46 -31
-0 -0 -0 -0 -0 -0 -0 -0 -0 -0 -0 -0 -0 -233 -222 -213 -192 -214 -165 -419 -400 -369 -302 -265 -259 -207 -153 -99 -67 -43 -19 -11 -32 -136 -62 -53 -58 -33 -31 -64 -85 -63 -67 -11 -17 -30 -16 -49 -34
-0 -0 -0 -0 -0 -0 -0 -0 -0 -0 -0 -0 -0 -0 -211 -175 -53 -212 -172 -419 -399 -365 -291 -269 -219 -139 -76 -62 -48 -51 -13 -26 -76 -172 -73 -21 -54 -48 -33 -30 -83 -58 -41 -21 -23 -47 -0 -0 -59
-0 -0 -0 -0 -0 -0 -0 -0 -0 -0 -0 -0 -80 -196 -177 -140 -62 -24 -49 -430 -371 -306 -284 -244 -161 -114 -76 -60 -41 -37 -130 -65 -41 -9 -21 -22 -56 -48 -54 -18 -25 -52 -50 -29 -46 -8 -23 -50 -63
-0 -0 -0 -0 -0 -0 -0 -0 -0 -0 -0 -0 -60 -130 -156 -120 -82 -52 -264 -430 -339 -294 -251 -199 -150 -88 -49 -39 -68 -106 -88 -61 -2 -7 -1 -5 -33 -13 -38 -37 -44 -57 -37 -23 -20 -42 -79 -23 -12
-4 -7 -0 -0 -0 -0 -0 -0 -0 -0 -0 -0 -82 -66 -76 -74 -98 -227 -398 -428 -330 -288 -273 -202 -106 -96 -74 -73 -57 -89 -34 -56 -17 -29 -6 -27 -22 -14 -13 -46 -45 -43 -43 -46 -34 -13 -20 -5 -9
-0 -7 -0 -0 -0 -0 -0 -0 -0 -0 -0 -0 -53 -42 -191 -300 -297 -319 -409 -371 -306 -284 -227 -166 -108 -73 -47 -34 -30 -68 -200 -72 -23 -37 -6 -24 -27 -5 -5 -40 -36 -54 -85 -64 -33 -21 -18 -8 -15
-10 -6 -4 -0 -0 -0 -0 -0 -0 -95 -0 -98 -282 -221 -319 -253 -368 -410 -334 -314 -306 -246 -176 -123 -85 -54 -34 -101 -66 -26 -268 -114 -28 -10 -6 -27 -44 -26 -28 -24 -39 -86 -49 -27 -27 -30 -13 -8 -8
-57 -11 -13 -0 -0 -0 -0 -24 -28 -94 -245 -275 -253 -306 -279 -352 -417 -380 -337 -301 -240 -158 -111 -81 -66 -52 -124 -108 -67 -42 -18 -11 -3 -7 -11 -10 -52 -31 -6 -20 -31 -32 -26 -30 -52 -18 -10 -7 -10
-0 -20 -31 -6 -0 -0 -0 -1 -222 -60 -82 -151 -114 -170 -207 -230 -273 -287 -300 -218 -150 -100 -77 -37 -53 -196 -164 -87 -130 -76 -44 -18 -25 -42 -38 -48 -72 -84 -6 -0 -39 -16 -12 -27 -65 -26 -36 -15 -31
Wind_Speed
23 21 21 19 20 21 nan nan 28 17 13 21 20 25 27 19 16 11 8 13 15 10 10 12 14 11 10 9 8 9 10 11 12 14 14 12 14 13 13 14 12 10 8 7 6 9 7 5 3
23 22 21 22 19 nan nan nan nan 24 30 25 23 24 19 14 15 16 6 14 17 16 12 11 13 12 11 10 7 7 8 10 11 11 12 12 12 13 12 13 12 9 8 9 10 9 6 4 4
26 27 24 28 26 nan nan nan 28 29 34 29 25 24 21 21 26 22 14 18 18 17 14 15 17 15 15 14 11 8 6 8 10 11 11 11 12 13 13 12 12 11 9 7 10 8 5 2 5
16 17 23 26 36 nan nan nan 25 22 20 24 27 20 27 29 37 25 23 19 17 18 19 16 16 18 17 16 14 10 8 7 6 8 9 12 10 11 12 11 10 11 8 6 8 7 6 5 6
nan 10 12 26 29 nan nan nan 32 26 20 25 24 26 26 30 31 33 27 22 21 18 19 21 20 18 16 15 15 14 10 7 5 6 7 8 9 8 11 12 8 9 8 6 6 6 6 6 6
7 nan 13 nan nan nan nan nan 31 25 31 24 24 26 25 31 32 33 30 26 23 25 22 22 22 20 19 18 17 15 15 12 7 6 6 6 7 9 11 13 10 9 9 9 7 7 6 6 6
9 11 14 19 nan nan nan nan nan 30 33 28 33 27 30 29 30 34 29 31 30 28 27 26 24 24 23 20 19 18 17 14 12 9 6 6 7 8 9 11 12 10 9 9 8 6 6 5 6
12 14 25 nan nan nan nan 29 nan 28 30 31 34 32 31 35 33 29 31 33 31 33 32 28 21 19 18 16 18 18 17 15 12 11 10 7 5 5 4 5 11 11 9 8 7 6 5 4 5
5 17 23 28 nan nan nan 30 nan nan 28 25 33 30 35 34 31 29 30 31 31 30 33 31 33 20 16 12 13 14 18 16 17 11 9 5 10 8 3 2 7 9 9 9 8 7 5 3 6
8 17 25 30 29 nan nan nan nan nan 20 16 19 24 38 34 33 33 36 36 31 33 35 36 29 31 28 22 11 9 8 7 11 9 8 8 7 9 7 2 4 8 10 9 7 7 6 4 9
nan nan nan nan nan 27 31 nan nan nan 21 25 35 38 40 37 33 32 38 40 35 35 32 35 37 33 33 28 20 10 7 7 9 8 5 8 11 11 12 12 8 10 11 17 13 13 12 10 10
nan nan nan nan nan nan nan nan nan nan nan 30 39 41 38 38 37 33 35 37 36 37 40 39 38 37 36 30 23 18 11 8 10 11 10 7 11 10 12 11 10 9 14 19 18 16 14 11 10
nan nan nan nan nan nan nan nan nan nan nan 35 29 34 37 36 32 30 33 35 35 38 39 40 39 39 39 34 23 18 20 6 10 9 13 5 8 9 11 10 12 12 12 19 18 16 14 13 10
nan nan nan nan nan nan nan nan 22 nan nan 35 38 33 31 43 36 29 30 35 37 39 39 39 41 40 39 40 24 25 18 8 8 9 11 2 7 10 11 10 12 11 12 17 19 17 14 13 13
nan nan nan nan nan nan nan nan nan nan nan 41 35 30 33 37 40 37 32 37 36 36 39 39 40 39 39 35 37 24 11 3 6 13 7 4 8 11 12 12 13 12 13 14 18 16 14 15 15
nan nan nan nan nan nan nan nan nan 39 34 38 37 24 30 36 42 40 36 34 34 34 39 42 39 38 38 37 32 30 17 10 9 11 12 9 3 11 nan nan 13 14 14 17 19 20 17 14 16
nan nan nan nan nan nan nan nan nan 33 35 38 37 30 33 33 35 35 38 37 36 35 38 42 39 37 39 38 33 29 27 21 12 8 9 9 9 9 13 14 nan 14 16 18 18 20 20 19 18
nan nan nan nan nan nan nan nan nan nan 29 33 38 36 34 33 36 37 38 37 30 31 34 40 39 36 34 28 29 30 23 19 15 10 11 11 10 7 12 12 16 nan 17 19 20 21 20 20 20
nan nan nan nan nan nan nan nan nan nan nan 27 34 35 35 32 31 32 36 34 31 32 34 36 39 34 28 23 24 26 25 25 19 12 12 13 11 11 10 13 14 nan 17 18 18 20 19 19 20
nan nan nan nan nan nan nan nan nan nan nan nan nan 34 34 28 25 28 35 31 31 37 43 38 36 35 30 27 21 23 22 25 25 15 11 12 13 12 13 13 nan nan nan 21 20 22 24 21 19
nan nan nan nan nan nan nan nan nan nan nan nan nan nan 32 30 23 27 35 42 30 35 41 39 37 34 32 29 24 21 23 20 29 15 13 12 14 12 14 12 14 nan nan 22 22 23 nan nan 21
nan nan nan nan nan nan nan nan nan nan nan nan nan nan 23 24 24 27 37 39 33 41 36 35 39 36 31 35 31 29 27 27 31 17 14 12 14 13 12 12 nan nan nan 25 24 nan nan nan nan
nan nan nan nan nan nan nan nan nan nan nan nan nan nan 23 27 26 28 33 39 32 41 35 31 36 35 32 36 34 31 30 30 29 14 13 13 14 13 11 11 nan 14 18 20 nan nan nan nan nan
nan nan nan nan nan nan nan nan nan nan nan nan nan 23 27 29 31 27 34 38 37 37 31 28 35 35 38 35 35 36 36 38 19 8 10 13 13 13 13 11 13 15 nan 20 nan nan nan nan nan
nan nan nan nan nan nan nan nan nan nan nan nan nan 22 30 38 33 36 47 39 41 37 26 26 33 33 29 31 32 37 42 32 14 6 6 12 13 11 12 13 13 16 17 22 22 nan nan 25 25
nan nan nan nan nan nan nan nan nan nan nan nan nan 19 27 28 29 33 31 34 34 31 27 30 32 29 28 29 34 41 32 20 9 3 4 5 7 8 11 11 13 15 21 23 23 30 21 21 22
nan nan nan nan nan nan nan nan nan nan nan nan nan nan nan 29 27 27 29 32 32 29 27 31 31 25 26 34 41 46 33 24 5 4 1 4 9 10 11 8 10 10 nan 14 14 14 17 19 18
nan nan nan nan nan nan nan nan nan nan nan nan nan 32 33 38 34 28 30 31 28 27 29 28 26 22 23 31 32 36 28 5 7 5 5 9 9 10 10 8 9 nan 4 7 10 11 13 17 20
nan nan nan nan nan nan nan nan 13 7 17 26 26 31 32 36 28 32 31 28 29 25 27 27 20 19 21 26 26 20 23 18 11 10 10 12 12 11 9 9 9 9 8 9 13 11 15 16 15
nan nan nan nan nan nan nan nan 15 14 24 31 27 26 31 31 30 33 31 27 23 23 23 23 18 15 17 22 22 18 21 22 19 18 17 16 15 13 nan nan nan 6 4 nan nan 5 9 13 15
Wind_Direction
45 49 59 57 60 52 nan nan 29 22 24 21 2 13 12 355 347 30 15 7 335 2 16 15 3 3 347 336 327 319 314 307 295 286 276 276 271 270 263 255 255 264 274 271 260 257 233 236 233
51 56 66 71 67 nan nan nan nan 8 10 4 0 2 353 348 332 337 347 5 354 7 16 18 4 5 4 353 338 320 314 309 305 299 283 276 272 269 270 262 256 264 270 274 256 244 236 228 218
56 58 60 59 50 nan nan nan 6 2 3 2 23 28 30 19 2 355 351 360 7 17 14 11 359 5 10 5 356 341 320 315 315 312 300 288 273 266 258 264 258 256 270 283 246 235 218 210 217
15 59 53 51 56 nan nan nan 357 359 353 357 10 31 37 25 7 15 10 1 16 24 22 4 360 2 8 8 7 358 345 327 309 311 317 299 285 272 259 266 257 260 261 266 243 233 219 208 205
nan 50 57 59 48 nan nan nan 3 8 8 357 11 30 38 39 17 7 15 16 17 30 32 22 7 4 10 12 9 9 3 339 316 303 307 311 314 296 276 260 256 255 251 251 259 242 230 199 196
360 nan 78 nan nan nan nan nan 6 23 7 358 3 25 41 20 17 25 27 34 31 23 31 34 21 15 11 10 9 6 5 359 338 298 281 287 296 296 303 272 249 253 250 248 281 247 238 189 189
91 42 57 82 nan nan nan nan nan 10 13 19 12 29 37 25 29 30 32 28 29 28 25 24 27 21 17 19 17 17 11 2 347 333 292 282 286 286 306 274 254 242 253 257 269 255 238 185 183
73 45 66 nan nan nan nan 349 nan 6 17 357 10 26 34 40 17 19 27 26 24 33 30 30 32 29 27 29 17 24 24 15 353 338 326 305 275 272 299 268 236 253 246 259 255 282 255 174 164
112 90 64 53 nan nan nan 324 nan nan 357 20 19 19 14 22 12 11 21 32 36 36 33 32 36 37 32 32 26 9 8 9 7 340 318 287 227 202 194 266 251 241 254 254 255 284 269 198 154
78 80 67 37 65 nan nan nan nan nan 353 359 359 357 359 12 11 5 13 25 29 28 30 29 39 37 34 25 23 13 11 357 350 322 283 258 231 218 192 196 358 233 241 254 252 275 292 248 200
nan nan nan nan nan 337 334 nan nan nan 359 2 345 357 2 10 17 11 17 20 23 24 26 24 36 37 26 21 27 24 16 347 348 346 292 243 230 208 202 197 200 204 223 223 224 226 231 234 215
nan nan nan nan nan nan nan nan nan nan nan 347 346 1 4 9 13 10 16 22 17 12 17 23 29 24 19 21 18 20 356 356 358 346 333 219 223 206 208 211 217 224 214 220 228 224 224 229 223
nan nan nan nan nan nan nan nan nan nan nan 342 338 358 10 11 13 12 9 12 8 6 7 18 19 18 18 9 11 14 11 356 15 350 349 293 212 219 210 214 222 212 220 217 221 229 231 228 222
nan nan nan nan nan nan nan nan 288 nan nan 337 338 350 13 16 9 8 5 6 3 2 4 9 16 15 14 14 18 5 349 26 10 11 350 306 219 225 235 209 218 216 223 214 222 223 227 235 235
nan nan nan nan nan nan nan nan nan nan nan 330 358 360 12 23 10 7 3 2 1 358 359 3 13 12 12 16 17 7 344 340 346 3 356 2 218 216 235 231 220 226 231 223 218 222 224 226 236
nan nan nan nan nan nan nan nan nan 323 312 325 342 335 4 15 18 10 3 358 354 349 355 1 9 8 9 15 19 24 20 74 52 16 14 20 273 239 nan nan 230 225 224 223 227 222 224 231 234
nan nan nan nan nan nan nan nan nan 317 321 331 328 340 345 11 9 6 359 353 349 348 349 354 2 3 6 15 18 19 27 28 29 6 3 4 343 247 231 222 nan 234 218 221 224 217 231 229 233
nan nan nan nan nan nan nan nan nan nan 311 329 334 340 344 4 1 356 352 345 346 340 344 350 356 360 5 10 9 14 17 10 13 8 8 5 339 322 246 238 229 nan 230 220 219 224 228 237 245
nan nan nan nan nan nan nan nan nan nan nan 325 323 329 334 359 350 346 340 337 338 336 334 351 348 354 358 4 3 5 3 11 359 9 352 348 335 318 290 243 235 nan 227 231 232 232 235 235 241
nan nan nan nan nan nan nan nan nan nan nan nan nan 316 328 337 330 330 327 337 341 340 336 344 349 344 350 351 353 353 354 358 355 338 347 340 330 311 292 274 nan nan nan 234 231 240 241 240 244
nan nan nan nan nan nan nan nan nan nan nan nan nan nan 317 319 333 322 319 324 334 347 338 339 338 341 341 338 336 335 340 343 352 327 325 322 320 299 272 267 245 nan nan 239 238 240 nan nan 238
nan nan nan nan nan nan nan nan nan nan nan nan nan nan 299 310 318 307 318 318 346 341 337 333 329 336 336 329 335 333 336 342 343 321 308 309 310 302 281 255 nan nan nan 246 241 nan nan nan nan
nan nan nan nan nan nan nan nan nan nan nan nan nan nan 292 307 309 306 314 320 329 325 333 322 323 325 327 329 333 334 330 333 328 299 301 316 306 304 297 283 nan 251 246 247 nan nan nan nan nan
nan nan nan nan nan nan nan nan nan nan nan nan nan 273 297 302 300 312 309 310 316 319 320 314 316 325 334 333 333 328 325 326 324 274 297 317 315 312 307 293 271 265 nan 253 nan nan nan nan nan
nan nan nan nan nan nan nan nan nan nan nan nan nan 295 313 317 326 297 309 308 314 316 309 303 311 321 326 331 332 325 323 319 318 266 308 322 311 308 314 304 290 267 262 259 251 nan nan 251 247
nan nan nan nan nan nan nan nan nan nan nan nan nan 287 278 295 306 309 310 308 313 305 302 302 315 323 328 332 334 333 312 255 214 217 292 322 321 323 344 322 291 279 271 263 260 244 241 250 250
nan nan nan nan nan nan nan nan nan nan nan nan nan nan nan 280 292 312 311 309 305 295 297 311 316 320 330 342 342 334 290 268 101 279 275 338 337 333 341 325 312 300 nan 279 273 242 244 256 263
nan nan nan nan nan nan nan nan nan nan nan nan nan 267 262 276 281 294 289 295 290 287 293 301 311 321 343 346 342 340 340 26 98 286 349 328 322 316 322 328 315 nan 303 282 277 270 262 263 262
nan nan nan nan nan nan nan nan 256 203 246 267 251 257 276 283 275 285 290 290 275 282 295 307 317 329 345 337 341 343 7 4 347 337 319 304 300 308 324 329 331 339 335 306 278 264 262 270 269
nan nan nan nan nan nan nan nan 215 195 224 249 245 240 233 236 257 268 285 286 284 291 298 306 321 329 338 338 353 323 334 349 343 324 316 308 307 306 nan nan nan 318 304 nan nan 290 274 279 276